Location: Hylvaty SDH
(49.9612°N, 16.4057°E)
Time: 20:10:21
(UTC+02:00)

Transit 4A - Pass Details

Date: 14 August 2020
Orbit: 862 x 982 km, 66.8° (Epoch: 28 September)

Event Time Altitude Azimuth Distance (km) Brightness Sun altitude
Rises 17:01:51 0° 323° (NW) 3,643 11.3 29.4°
Reaches altitude 10° 17:04:25 10° 327° (NNW) 2,708 10.7 29.0°
Maximum altitude 17:10:44 63° 48° (NE) 1,086 8.4 28.0°
Drops below altitude 10° 17:17:05 10° 130° (SE) 2,731 10.1 27.0°
Sets 17:19:41 0° 133° (SE) 3,676 10.7 26.6°
